{"data":{"norad_id":69300,"epoch":"2026-09-19T19:14:41.030592Z","epoch_age_seconds":89336,"freshness":"FRESH","line1":"1 69300U 26119E   26262.80186378  .00019807  00000+0  61400-3 0  9994","line2":"2 69300  97.2835 287.5064 0000584 129.7376 230.3919 15.33458679 18555","mean_motion":15.33458679,"eccentricity":5.84e-5,"inclination_deg":97.2835,"raan_deg":287.5064,"arg_perigee_deg":129.7376,"mean_anomaly_deg":230.3919,"bstar":0.000614,"rev_number":1855,"period_min":93.905366979895,"perigee_km":465.10280715529,"apogee_km":465.90214424605,"semimajor_km":6843.6394757007,"source":"CELESTRAK","updated_at":"2026-09-20T09:00:44.154468Z"}}